Regional Weather Roundup
Issued by NWS

Home | Current Version | Previous Version | Graphics & Text | Print | Product List | Glossary On
Versions: 1 2 3 4 5 6 7 8 9 10 11 12 13 14 15 16 17 18 19 20 21 22 23 24 25 26 27 28 29 30 31 32 33 34 35 36 37 38 39 40 41 42 43 44 45 46 47 48 49 50
000
ASUS43 KMKX 300220
RWRWI

WISCONSIN REGIONAL WEATHER ROUNDUP
NATIONAL WEATHER SERVICE MILWAUKEE/SULLIVAN WI
800 PM CST THU JAN 29 2015

NOTE: "FAIR" INDICATES FEW OR NO CLOUDS BELOW 12,000 FEET WITH NO
SIGNIFICANT WEATHER AND/OR OBSTRUCTIONS TO VISIBILITY.

WIZ001-002-006>008-014>016-023>028-300300-
NORTHWEST WISCONSIN

CITY           SKY/WX    TMP DP  RH WIND       PRES   REMARKS
SUPERIOR ARPT  PTCLDY    12   3  66 NW15      30.49R WCI  -4
ASHLAND        MOCLDY    17   7  64 NW10G17   30.42R WCI   5
HAYWARD        CLOUDY    14   4  64 N8        30.40R WCI   3
SIREN          FAIR      14   6  71 NW8       30.45S WCI   3
CUMBERLAND     CLEAR     14   5  67 N14       30.40R WCI  -1
RICE LAKE      CLOUDY    17   7  64 NW12G18   30.42R WCI   5
CHETEK         CLOUDY    18   8  65 NW9       30.40R WCI   6
LADYSMITH      CLOUDY    19   9  66 NW18G25   30.38R WCI   3
EAU CLAIRE     CLOUDY    21   9  59 N12G24    30.39R WCI   9
MENOMONIE      CLOUDY    22  10  60 NW22G28   30.41R WCI   6
NEW RICHMOND   CLEAR     16   8  71 NW17      30.45R WCI   0
OSCEOLA        CLEAR     17   8  69 NW12      30.49R WCI   4
$$

WIZ003>005-009-010-017-018-300300-
NORTH CENTRAL WISCONSIN

CITY           SKY/WX    TMP DP  RH WIND       PRES   REMARKS
MANITOWISH WTR LGT SNOW  15   9  76 N13G22    30.27R WCI   2
ARBOR VITAE    CLOUDY    18  10  71 N20G30    30.27R HAZE    WCI   2
WOODRUFF       CLOUDY    18  10  71 N20G30    30.27R HAZE    WCI   2
RHINELANDER    FLURRIES  18  10  71 NW12      30.25R WCI   5
EAGLE RIVER    LGT SNOW  17  10  73 N15G25    30.24R WCI   2
LAND O LAKES   LGT SNOW  16  11  80 N14G23    30.25R WCI   2
PHILLIPS       CLOUDY    17   9  71 NW13G18   30.30R WCI   3
TOMAHAWK       LGT SNOW  19  12  74 NW9G22    30.28R WCI   7
MEDFORD        CLOUDY    19  11  72 NW17G25   30.29R WCI   4
MERRILL        LGT SNOW  21  16  81 N15       30.28R WCI   7
$$

WIZ029-030-035-036-043>047-300300-
CENTRAL WISCONSIN

CITY           SKY/WX    TMP DP  RH WIND       PRES   REMARKS
WAUSAU         CLOUDY    22  13  68 N12G20    30.26R WCI  10
MOSINEE        FLURRIES  23  16  74 NW16      30.27R WCI  10
MARSHFIELD     CLOUDY    22  12  65 NW23G31   30.30R WCI   6
STEVENS POINT  FLURRIES  23  12  63 N9G20     30.28R WCI  13
WAUPACA        CLOUDY    28  13  52 NW18G25   30.26R WCI  16
WAUTOMA        FLURRIES  28  18  64 N9        30.28R WCI  20
WISC RAPIDS    CLOUDY    26  12  55 NW18G24   30.29R WCI  13
CAMP DOUGLAS   MOCLDY    28  19  69 NW21G26   30.30R WCI  15
$$

WIZ011>013-019>022-031-037>040-048>050-300300-
NORTHEAST WISCONSIN

CITY           SKY/WX    TMP DP  RH WIND       PRES   REMARKS
ANTIGO         CLOUDY    19  12  74 NW20      30.24R WCI   3
SHAWANO        CLOUDY    26  12  54 N14       30.27R WCI  15
OCONTO         CLOUDY    23  11  61 MISG      30.26R
STURGEON BAY   MOCLDY    19   9  63 N16G23    30.26R WCI   5
GREEN BAY      CLOUDY    25  13  60 N13G22    30.25R WCI  14
MANITOWOC      CLOUDY    27  16  63 N23G31    30.22R WCI  12
APPLETON       CLOUDY    27  12  54 NW21G29   30.25R WCI  13
CLINTONVILLE   CLOUDY    27  10  50 N13G22    30.27R WCI  16
OSHKOSH        CLOUDY    27  13  55 N23G35    30.23R WCI  12
$$

WIZ032>034-041-042-053>061-300300-
SOUTHWEST WISCONSIN

CITY           SKY/WX    TMP DP  RH WIND       PRES   REMARKS
LA CROSSE      CLOUDY    28  16  60 NW14      30.36R WCI  17
SPARTA         CLOUDY    27  15  61 NW7G13    30.35R WCI  20
VIROQUA        CLOUDY    26  17  68 NW16G22   30.31R WCI  13
BOSCOBEL       CLOUDY    30  15  53 NW9G20    30.35R WCI  22
PRAIRIE DU CHI MOCLDY    29  15  55 NW16G26   30.35R WCI  18
PLATTEVILLE    CLOUDY    31  22  69 W20G28    30.29R WCI  18
$$

WIZ056-057-062-063-064-067-068-300300-
SOUTH CENTRAL WISCONSIN

CITY           SKY/WX    TMP DP  RH WIND       PRES   REMARKS
REEDSBURG      LGT RAIN  28  17  62 NW14G24   30.29R WCI  17
BARABOO/DELLS  CLOUDY    29  17  62 NW15G22   30.27R WCI  17
LONE ROCK      CLOUDY    30  16  56 N14G21    30.31R WCI  19
MINERAL POINT  CLOUDY    30  19  64 NW23G29   30.28R WCI  17
MADISON        FLURRIES  31  18  58 NW14G25   30.25R WCI  21
MIDDLETON      CLOUDY    32  18  56 NW20G29   30.26R WCI  20
WATERTOWN      CLOUDY    31  21  66 NW17G30   30.22R WCI  19
MONROE         CLOUDY    32  23  69 NW13G21   30.24R WCI  22
JANESVILLE     CLOUDY    34  19  55 N17G23    30.22R WCI  23
$$

WIZ051-052-058>065-066-070>072-300300-
SOUTHEAST WISCONSIN

CITY           SKY/WX    TMP DP  RH WIND       PRES   REMARKS
MILWAUKEE      CLOUDY    33  17  51 N18G25    30.19R WCI  22
WAUKESHA       CLOUDY    30  18  59 NW21G28   30.19R WCI  17
MILWAUKEE/TIMM FLURRIES  32  18  55 N18G30    30.20R WCI  20
RACINE         CLOUDY    34  19  54 N10       30.20R WCI  26
BURLINGTON     CLOUDY    32  18  56 N15       30.20R WCI  21
KENOSHA        CLOUDY    34  20  56 NW9       30.18R WCI  27
FOND DU LAC    CLOUDY    28  16  60 N20G33    30.24R WCI  15
SHEBOYGAN      CLOUDY    28  16  60 N21G31    30.21R WCI  15
WEST BEND      CLOUDY    30  18  59 NW20G25   30.21R WCI  18
JUNEAU         FLURRIES  30  21  70 NW10G22   30.24R WCI  21
$$

LSZ147-162-300300-
LAKE SUPERIOR

STATION/POSITION TIME  TEMP    WIND        PRES    WAVE
                       AIR SEA DIR/SP/G            HT/PER
                 (UTC) (F)     (DEG/KT/KT) (MB)    (FT/S)
DEVILS ISLAND    0200   16     330/ 22/ 26 1032.0R
PORT WING        0100   19     330/ 19/ 26 1030.1R
SAXON HARBOR     0100   22     330/ 18/ 23 1028.4R
$$

LMZ867-665-643>646-300300-
LAKE MICHIGAN

STATION/POSITION TIME  TEMP    WIND        PRES    WAVE
                       AIR SEA DIR/SP/G            HT/PER
                 (UTC) (F)     (DEG/KT/KT) (MB)    (FT/S)
NORTHPORT PIER   0205   20     320/ 26     1023.7R
SISTER BAY       0113   20      10/ 21/ 26   N/A
KEWAUNEE LAKESHO 0100   27     340/ 14/ 21 1021.2R
SHEBOYGAN LAKESH 0200   28     360/ 25/ 28 1024.3R
PORT WASHINGTON  0140   32     330/ 10/ 19 1023.0R
MILWAUKEE LAKESH 0200   33     340/ 17/ 22   N/A
KENOSHA   LAKESH 0200   35     320/ 11/ 16 1022.0R
$$

TC  - TEMPERATURE IN CELSIUS
VSB - VISIBILITY IN STATUTE MILES
WCI - WIND CHILL INDEX
HX  - HEAT INDEX




USA.gov is the U.S. government's official web portal to all federal, state and local government web resources and services.